Погода в Вшелях

Россия / Новгородская область     58°08′46″N   29°52′16″E
темп.,
°C
ветер,
м/с
пор.,
м/с
влажн.,
%
обл.,
%
осадки,
мм/ч
давл.,
гПа
погр.,
м
24 мая, вт
вт2400:00+7сз24845 0.0 101171
03:00+5сз298299 0.0 1012156
06:00+6сз287268 0.0 1012203
09:00+13ссз36525 0.0 1012635
12:00+17с49385 0.0 10122046
15:00+19ссв593329 0.0 10122586
18:00+18ссв47395 0.0 10121870
21:00+10в25580 0.0 101488
25 мая, ср
ср2500:00+5юв11510 0.0 101610
03:00+4вюв11490 0.0 101610
06:00+6ююв12520 0.0 101648
09:00+13ю12370 0.0 1016455
12:00+19юз123593 0.0 10151083
15:00+21зюз133364 0.0 10132445
18:00+21юв023475 0.0 10112256
21:00+15ю236466 0.0 101076
26 мая, чт
чт2600:00+11зюз227577 0.0 101029
03:00+12ссв1177100 0.0 100824
06:00+12ююз1180100 0.0 100655
09:00+11вюв1294100 0.8 1004112
12:00+11всв2698100 4.6 1003325
15:00+10зсз4798100 14.4 1002540
18:00+13сз388210 1.1 1001783
21:00+11зсз119250 1.1 99919
27 мая, пт
пт2700:00+8з299722 0.1 998260
03:00+8з3109795 0.3 998365
06:00+9з4109792 0.4 998548
09:00+9зюз4994100 0.8 998752
12:00+10зюз51192100 0.7 9981098
15:00+11зюз5118662 2.3 9971130
18:00+12зюз48745 1.3 9961273
21:00+9ю238335 1.6 99546
28 мая, сб
сб2800:00+6юз3996100 0.1 994206
03:00+7юз3897100 1.1 994359
06:00+6юз3799100 2.9 994466
09:00+6зюз2698100 4.3 994508
12:00+8зюз1392100 3.3 995332
15:00+11зюз248187 5.3 9951078
18:00+12зюз23735 1.1 995926
21:00+9зюз239261 1.8 99669